User: anonymous   Login
Location: Great Northern Moose Lodge
(44.6765°N, 71.1811°W)
Time: 22:10:22
(UTC-04:00)
Language:

Terra - Orbit

View from above orbital plane
View from above orbital plane
View from above satellite
View from above satellite

Ground track
Ground track

The orbit data is extracted from the following two-line orbital elements,

1 25994U 99068A   18170.24447066  .00000160  00000-0  45459-4 0  9999
2 25994  98.2040 245.0844 0001258  89.1342 271.0026 14.57108560984123
Epoch (UTC): 19 June 2018 05:52:02
Eccentricity: 0.0001258
inclination: 98.2040°
perigee height: 701 km
apogee height: 703 km
right ascension of ascending node: 245.0844°
argument of perigee: 89.1342°
revolutions per day: 14.57108560
mean anomaly at epoch: 271.0026°
orbit number at epoch: 98412

The dashed part of the orbit path shows where the satellite is in the earth's shadow,  

DLR